Flag for Pakistan Weather past 2 weeks in Karachi, Sindh, Pakistan

Now
75 °F

Partly sunny.


Feels Like: 77 °F
Forecast: 66 / 77 °F
Wind: 12 mph from Southwest

Location: Karachi Airport

Current Time: Feb 1, 2015 at 11:41:03 AM

Latest Report: Feb 1, 2015 at 10:55 AM


Visibility: 3 mi

Pressure: 29.98 "Hg

Humidity: 69%

Dew point: 64 °F

Location of KarachiLocation

Historic Weather in Karachi — Graph

°F

Karachi temperature yesterday

Maximum temperature yesterday: 79 °F (at 12:55 PM)
Minimum temperature yesterday: 54 °F (at 5:55 AM)
Average temperature yesterday: 67 °F

Past Weeks' High & Low Weather Summary

 TemperatureHumidityPressure
High79 °F (Jan 18, 2:25 PM)88% (Jan 21, 1:55 AM)30.21 "Hg (Jan 21, 1:55 AM)
Low48 °F (Jan 18, 7:25 AM)10% (Jan 27, 2:25 PM)29.56 "Hg (Jan 22, 2:30 AM)
Average65 °F45%30.07 "Hg
* Reported Jan 17 10:25 AM — Feb 1 10:25 AM, Karachi, Weather by CustomWeather, © 2014

Note: Actual official high and low records may vary slightly from our data, if they occured in-between our weather recording intervals... More about our weather records

Advertising

Karachi weather history for previous 24 hours

 ConditionsComfort  
Time TempWeatherWind HumidityBarometerVisibility
10:25 AM
Feb 1
75 °FPartly sunny.9 mph69%29.98 "Hg3 mi
9:55 AM73 °FPartly sunny.5 mph74%29.98 "Hg2 mi
9:25 AM73 °FPartly sunny.No wind78%29.98 "Hg3 mi
8:55 AM72 °FScattered clouds.No wind78%29.98 "Hg2 mi
8:25 AM72 °FPartly sunny.No wind78%29.98 "Hg2 mi
7:55 AM70 °FPartly sunny.3 mph78%29.95 "Hg2 mi
7:25 AM70 °FPartly sunny.No wind78%29.95 "Hg2 mi
6:55 AM70 °FPassing clouds.No wind78%29.95 "Hg3 mi
6:25 AM70 °FPassing clouds.3 mph78%29.92 "Hg3 mi
4:55 AM68 °FHaze.3 mph83%29.92 "Hg3 mi
4:30 AM68 °FPassing clouds.3 mph83%29.92 "Hg4 mi
3:55 AM68 °FPassing clouds.5 mph83%29.92 "Hg4 mi
3:30 AM68 °FPassing clouds.5 mph83%29.92 "Hg4 mi
2:55 AM68 °FPassing clouds.6 mph78%29.95 "Hg4 mi
1:55 AM70 °FPassing clouds.7 mph73%29.95 "Hg4 mi
1:30 AM70 °FPassing clouds.7 mph73%29.95 "Hg4 mi
12:55 AM70 °FPassing clouds.6 mph73%29.95 "Hg4 mi
12:25 AM70 °FPassing clouds.10 mph73%29.98 "Hg4 mi
11:55 PM
Jan 31
70 °FPassing clouds.7 mph73%29.98 "Hg4 mi
11:25 PM68 °FPassing clouds.8 mph78%29.98 "Hg4 mi
10:55 PM68 °FPassing clouds.7 mph73%29.98 "Hg4 mi
10:25 PM68 °FPassing clouds.7 mph73%29.98 "Hg4 mi
9:55 PM68 °FPassing clouds.7 mph73%29.98 "Hg4 mi
9:25 PM70 °FPassing clouds.9 mph69%29.98 "Hg4 mi
8:55 PM70 °FPassing clouds.13 mph73%29.98 "Hg4 mi
8:25 PM70 °FPassing clouds.12 mph73%29.98 "Hg4 mi
7:55 PM70 °FPassing clouds.12 mph73%29.98 "Hg4 mi
7:25 PM72 °FPassing clouds.12 mph65%29.98 "Hg4 mi
6:55 PM72 °FPassing clouds.9 mph65%29.95 "Hg4 mi
6:25 PM72 °FPassing clouds.14 mph61%29.95 "Hg4 mi
5:55 PM73 °FScattered clouds.14 mph57%29.95 "Hg4 mi
5:25 PM75 °FScattered clouds.14 mph57%29.95 "Hg4 mi
4:55 PM75 °FClear.14 mph54%29.95 "Hg4 mi
4:25 PM75 °FPassing clouds.14 mph54%29.95 "Hg4 mi
3:55 PM77 °FClear.16 mph54%29.95 "Hg4 mi
3:25 PM77 °FClear.12 mph54%29.95 "Hg4 mi
2:55 PM77 °FClear.17 mph51%29.98 "Hg4 mi
2:25 PM79 °FClear.14 mph48%29.98 "Hg4 mi
1:55 PM79 °FClear.10 mph45%29.98 "Hg4 mi
1:25 PM79 °FClear.10 mph45%30.01 "Hg4 mi
12:55 PM79 °FClear.6 mph42%30.04 "Hg4 mi
12:25 PM77 °FHaze.9 mph44%30.07 "Hg3 mi
11:25 AM75 °FHaze.3 mph50%30.09 "Hg3 mi
Weather by CustomWeather, © 2014

See weather overviewHow to use our weather pages